Location: Le Castellard
(44.1862°N, 6.1301°E)
Time: 09:12:27
(UTC+00:00)

SL-4 R/B - Pass Details

Date: 18 January 2020
Orbit: 428 x 666 km, 51.6° (Epoch: 17 February)

Event Time Altitude Azimuth Distance (km) Brightness Sun altitude
Exits shadow 06:27:00 - 300° (WNW) 1,651 3.8 -7.2°
Reaches altitude 10° 06:27:09 10° 299° (WNW) 1,586 3.7 -7.2°
Maximum altitude 06:30:42 79° 213° (SSW) 450 1.6 -6.6°
Drops below altitude 10° 06:34:05 10° 127° (SE) 1,523 5.9 -6.0°
Sets 06:36:10 0° 126° (SE) 2,382 7.3 -5.7°
